Beckley, WV

10:48 PM EDT on September 18, 2019 (GMT -0400)
Raleigh County Memorial

Weather History for KBKW - July, 2019

Change the Weather History Date:

Wednesday, July 10, 2019

  Actual Average Record
Temperature  
Mean Temperature 77 °F 71 °F  
Max Temperature 87 °F 80 °F 96 °F (1936)
Min Temperature 67 °F 62 °F 38 °F (1961)
Degree Days  
Heating Degree Days 0 0  
Month to date heating degree days 0 0  
Since 1 June heating degree days 33 39  
Since 1 July heating degree days 0 0  
Cooling Degree Days 12 6  
Month to date cooling degree days 102 60  
Year to date cooling degree days 328 212  
Since 1 June cooling degree days 208 171  
Growing Degree Days 26 (Base 50)    
Moisture  
Dew Point 66 °F    
Average Humidity 74    
Maximum Humidity 97    
Minimum Humidity 51    
Precipitation  
Precipitation 0.21 in 0.16 in 3.15 in (1910)
Month to date precipitation 1.94 1.52  
Year to date precipitation 24.83 22.68  
Sea Level Pressure  
Sea Level Pressure 30.03 in    
Wind  
Wind Speed 6 mph (South)    
Max Wind Speed 15 mph    
Max Gust Speed 19 mph    
Visibility 9 miles    
Events Rain    
T = Trace of Precipitation, MM = Missing Value Source: NWS Daily Summary

Daily Weather History Graph

Daily Weather History Graph

Search for Another Location

Airport or City:

Astronomy

Jul. 10, 2019 Rise Set
Actual Time 6:11 AM EDT 8:48 PM EDT
Civil Twilight 5:40 AM EDT 9:19 PM EDT
Nautical Twilight 5:01 AM EDT 9:57 PM EDT
Astronomical Twilight 4:18 AM EDT 10:40 PM EDT
Moon 2:57 PM EDT (7/10) 1:44 AM EDT (7/10)
Length of Visible Light 15h 38m
Length of Day
14h 37m
Waxing Gibbous, 63% of the Moon is Illuminated
Jul 10
Waxing Gibbous
Jul 16
Full
Jul 24
Last Quarter
Jul 31
New
Aug 7
First Quarter

Hourly Weather History & Observations

Time (EDT) Temp. Heat Index Dew Point Humidity Pressure Visibility Wind Dir Wind Speed Gust Speed Precip Events Conditions
12:51 AM 70.0 °F - 64.9 °F 84% 30.04 in 10.0 mi South 9.2 mph - N/A   Partly Cloudy
1:51 AM 70.0 °F - 64.9 °F 84% 30.03 in 10.0 mi SE 8.1 mph - N/A   Partly Cloudy
2:51 AM 69.1 °F - 64.0 °F 84% 30.03 in 10.0 mi South 4.6 mph - N/A   Partly Cloudy
3:51 AM 69.1 °F - 64.0 °F 84% 30.01 in 10.0 mi SSE 6.9 mph - N/A   Mostly Cloudy
4:51 AM 69.1 °F - 64.0 °F 84% 30.01 in 10.0 mi SE 5.8 mph - N/A   Partly Cloudy
5:51 AM 68.0 °F - 64.0 °F 87% 30.02 in 10.0 mi SE 8.1 mph - N/A   Partly Cloudy
6:51 AM 68.0 °F - 64.0 °F 87% 30.04 in 10.0 mi SE 6.9 mph - N/A   Partly Cloudy
7:51 AM 70.0 °F - 64.0 °F 81% 30.04 in 10.0 mi SSE 6.9 mph - N/A   Clear
8:51 AM 73.9 °F - 64.9 °F 73% 30.05 in 10.0 mi SSE 8.1 mph - N/A   Clear
9:34 AM 75.9 °F - 66.0 °F 71% 30.15 in 10.0 mi Variable 4.6 mph - N/A   Mostly Cloudy
9:51 AM 75.9 °F - 66.0 °F 71% 30.05 in 10.0 mi SSE 3.5 mph - N/A   Mostly Cloudy
10:51 AM 79.0 °F - 66.9 °F 66% 30.04 in 10.0 mi West 6.9 mph - N/A   Overcast
11:10 AM 80.1 °F 82.3 °F 66.9 °F 64% 30.15 in 10.0 mi WSW 8.1 mph - N/A   Scattered Clouds
11:51 AM 81.0 °F 83.3 °F 66.9 °F 62% 30.03 in 10.0 mi SW 6.9 mph - N/A   Mostly Cloudy
12:51 PM 82.0 °F 84.9 °F 68.0 °F 62% 30.02 in 10.0 mi WSW 6.9 mph - N/A   Partly Cloudy
1:51 PM 84.9 °F 87.6 °F 66.9 °F 55% 29.99 in 10.0 mi North - - N/A   Partly Cloudy
2:51 PM 82.9 °F 84.4 °F 64.0 °F 53% 30.00 in 10.0 mi SW 6.9 mph - N/A   Scattered Clouds
3:51 PM 86.0 °F 88.2 °F 66.0 °F 51% 29.97 in 10.0 mi West 10.4 mph - N/A   Clear
4:51 PM 82.9 °F 85.8 °F 68.0 °F 60% 29.97 in 10.0 mi ESE 12.7 mph 18.4 mph N/A   Partly Cloudy
5:10 PM 79.0 °F - 68.0 °F 69% 30.09 in 10.0 mi East 9.2 mph - N/A   Mostly Cloudy
5:51 PM 73.9 °F - 68.0 °F 82% 30.01 in 4.0 mi SSW 9.2 mph - 0.01 in Rain Rain
5:59 PM 73.0 °F - 68.0 °F 84% 30.10 in 1.8 mi South 4.6 mph - 0.04 in Rain Rain
6:23 PM 73.0 °F - 69.1 °F 87% 30.09 in 3.0 mi SSE 3.5 mph - 0.18 in Rain Light Rain
6:51 PM 73.0 °F - 69.1 °F 87% 29.99 in 5.0 mi SE 6.9 mph - 0.19 in Rain Light Rain
7:51 PM 73.0 °F - 69.1 °F 87% 29.97 in 10.0 mi South 3.5 mph - 0.01 in   Overcast
8:51 PM 73.0 °F - 66.9 °F 81% 29.96 in 10.0 mi SSE 6.9 mph - N/A   Clear
9:51 PM 70.0 °F - 68.0 °F 93% 29.99 in 3.0 mi West 4.6 mph - N/A   Partly Cloudy
10:51 PM 71.1 °F - 69.1 °F 93% 29.99 in 9.0 mi Calm Calm - N/A   Scattered Clouds
11:51 PM 70.0 °F - 68.0 °F 93% 29.98 in 7.0 mi SSE 3.5 mph - N/A   Scattered Clouds